This demonstration page uses our WeatherBlox Daily Observations layout. Learn more.

Left ArrowRight Arrow

41.12389, -100.76542

Hourly Observations for January 21, 2022

Temp ( °F °C ) Dew Point ( °F °C ) Humidity (%) Winds ( mph kmh ) Pressure ( in mb ) Visibility ( mi km ) Precip ( " mm )
12:53 am 00:53 Clear 14 -10 2 -16.7 58 58 S 20 31 30.29 1026 10 16 0.00 0.00
1:53 am 01:53 Clear 14 -10 1 -17.2 56 56 SSE 12 19 30.27 1025 10 16 0.00 0.00
2:53 am 02:53 Clear 14 -10 2 -16.7 58 58 SSE 14 22 30.25 1024 10 16 0.00 0.00
3:53 am 03:53 Clear 13 -10.6 1 -17.2 59 59 S 14 22 30.25 1024 10 16 0.00 0.00
4:53 am 04:53 Clear 13 -10.6 1 -17.2 59 59 S 13 20 30.22 1024 10 16 0.00 0.00
5:53 am 05:53 Clear 12 -11.1 1 -17.2 61 61 SSE 8 13 30.21 1023 10 16 0.00 0.00
6:53 am 06:53 Clear 11 -11.7 -1 -18.3 58 58 S 13 20 30.24 1024 10 16 0.00 0.00
7:53 am 07:53 Clear 10 -12.2 -1 -18.3 61 61 S 7 11 30.25 1024 10 16 0.00 0.00
8:53 am 08:53 Cloudy 13 -10.6 2 -16.7 61 61 SSE 7 11 30.24 1024 10 16 0.00 0.00
9:53 am 09:53 Cloudy 15 -9.4 4 -15.6 61 61 SSW 6 9 30.24 1024 10 16 0.00 0.00
10:48 am 10:48 Cloudy 18 -8 7 -14 62 62 SSW 10 17 30.33 1027 10 16 0.00 0.00
10:53 am 10:53 Cloudy 18 -7.8 6 -14.4 59 59 SSW 12 19 30.26 1025 10 16 0.00 0.00
11:53 am 11:53 Cloudy 21 -6.1 8 -13.3 57 57 S 7 11 30.26 1025 10 16 0.00 0.00
12:21 pm 12:21 Cloudy 24 -4.4 10 -12.2 55 55 SSW 8 13 30.29 1026 10 16 0.00 0.00
12:53 pm 12:53 Cloudy with Light Snow 24 -4.4 13 -10.6 62 62 SW 7 11 30.26 1025 9 14 0.00 0.00
1:21 pm 13:21 Cloudy with Light Snow 25 -3.9 16 -8.9 69 69 WSW 9 15 30.28 1025 10 16 0.00 0.00
1:53 pm 13:53 Cloudy with Light Snow 27 -2.8 18 -7.8 69 69 SSW 7 11 30.23 1024 10 16 0.00 0.00
2:53 pm 14:53 Cloudy with Light Wintry Mix 31 -0.6 22 -5.6 69 69 WSW 6 9 30.24 1024 10 16 0.01 0.25
3:53 pm 15:53 Cloudy 32 0 26 -3.3 79 79 S 5 7 30.24 1024 10 16 0.00 0.00
4:53 pm 16:53 Cloudy 34 1.1 27 -2.8 76 76 Calm 30.25 1025 10 16 0.00 0.00
5:53 pm 17:53 Cloudy 33 0.6 27 -2.8 78 78 Calm 30.28 1026 10 16 0.00 0.00
6:53 pm 18:53 Mostly Clear 30 -1.1 26 -3.3 85 85 Calm 30.32 1027 10 16 0.00 0.00
7:53 pm 19:53 Mostly Clear 26 -3.3 22 -5.6 84 84 WSW 3 6 30.37 1028 10 16 0.00 0.00
8:53 pm 20:53 Clear 22 -5.6 20 -6.7 92 92 Calm 30.38 1029 10 16 0.00 0.00
9:53 pm 21:53 Clear 21 -6.1 18 -7.8 88 88 WNW 6 9 30.40 1030 10 16 0.00 0.00
10:31 pm 22:31 Clear with Mist and Fog 21 -6.1 19 -7.2 92 92 WNW 3 6 30.46 1031 2 2 0.00 0.00
10:36 pm 22:36 Clear with Mist and Fog 19 -7.2 18 -7.8 96 96 WNW 3 6 30.47 1032 1 1 0.00 0.00
10:46 pm 22:46 Clear with Mist and Fog 20 -6.7 17 -8.3 89 89 Calm 30.47 1032 2 2 0.00 0.00
10:49 pm 22:49 Clear with Mist and Fog 18 -8 18 -8 100 100 Calm 30.49 1033 4 6 0.00 0.00
10:53 pm 22:53 Clear 19 -7.2 16 -8.9 88 88 NNW 3 6 30.41 1030 9 14 0.00 0.00
11:44 pm 23:44 Partly Cloudy with Mist and Fog 18 -7.8 14 -10 84 84 Calm 30.50 1033 3 5 0.00 0.00
11:46 pm 23:46 Partly Cloudy with Mist and Fog 18 -7.8 14 -10 84 84 N 3 6 30.50 1033 2 3 0.00 0.00
11:49 pm 23:49 Mostly Cloudy with Mist and Fog 18 -8 14 -10 86 86 NNW 5 7 30.51 1033 1 2 0.00 0.00
11:53 pm 23:53 Mostly Cloudy with Mist and Fog 19 -7.2 15 -9.4 84 84 NW 5 7 30.42 1030 1 1 0.00 0.00

Powered by AerisWeather